This is the latest recevied weather packets stored in our database for station/object 9M2SAR-10. If no packets are shown the sender has not sent any weather packets the latest 10 day(s).
| Time | Temp. | Humidity | Pressure | Rain* | Wind** | Luminosity | Snow |
|---|---|---|---|---|---|---|---|
| 1777649480 | 27.78° C | 100% | 1009.8 hPa | - | - | - | - |
| 1777647680 | 28.33° C | 100% | 1009.8 hPa | - | - | - | - |
| 1777646779 | 27.22° C | 100% | 1010.1 hPa | - | - | - | - |
| 1777645879 | 28.33° C | 100% | 1009.5 hPa | - | - | - | - |
| 1777644979 | 27.78° C | 100% | 1009.6 hPa | - | - | - | - |
| 1777644079 | 28.33° C | 100% | 1009.4 hPa | - | - | - | - |
| 1777643179 | 28.33° C | 100% | 1009.5 hPa | - | - | - | - |
| 1777642279 | 28.33° C | 100% | 1009.5 hPa | - | - | - | - |
| 1777641379 | 28.33° C | 100% | 1009.3 hPa | - | - | - | - |
| 1777640479 | 28.33° C | 100% | 1009.3 hPa | - | - | - | - |
| 1777637778 | 28.89° C | 100% | 1008.5 hPa | - | - | - | - |
| 1777636878 | 28.89° C | 100% | 1008.2 hPa | - | - | - | - |
| 1777635978 | 29.44° C | 100% | 1008.5 hPa | - | - | - | - |
| 1777635078 | 29.44° C | 100% | 1008.3 hPa | - | - | - | - |
| 1777634178 | 30° C | 100% | 1008.2 hPa | - | - | - | - |
| 1777633278 | 30° C | 100% | 1008.1 hPa | - | - | - | - |
| 1777632378 | 31.11° C | 100% | 1007.8 hPa | - | - | - | - |
| 1777631478 | 32.22° C | 100% | 1007.6 hPa | - | - | - | - |
| 1777630578 | 32.22° C | 100% | 1007.7 hPa | - | - | - | - |
| 1777627878 | 32.78° C | 100% | 1006.7 hPa | - | - | - | - |
| 1777626978 | 32.78° C | 100% | 1007.3 hPa | - | - | - | - |
| 1777621577 | 35.56° C | 100% | 1007.1 hPa | - | - | - | - |
| 1777620677 | 36.11° C | 100% | 1007.3 hPa | - | - | - | - |
| 1777619776 | 33.89° C | 100% | 1007.6 hPa | - | - | - | - |
| 1777618876 | 35° C | 100% | 1008.2 hPa | - | - | - | - |
* Rain since midnight (hover to see other rain measurements)
** Current wind speed in m/s (hover to see current wind gust speed)